Stations météo

Publicité
Chartres, France (7143): Température de l'air & dewpoint: 09.11.2019 16:00:00 - 15.11.2019 16:00:00 (CET)Chartres, France (7143): Température de l'air 5cm: 09.11.2019 16:00:00 - 15.11.2019 16:00:00 (CET)Chartres, France (7143): Température de l'air -20cm & Température de l'air -100cm: 09.11.2019 16:00:00 - 15.11.2019 16:00:00 (CET)Chartres, France (7143): Vitesse du vent & gusts: 09.11.2019 16:00:00 - 15.11.2019 16:00:00 (CET)Chartres, France (7143): Direction du vent: 09.11.2019 16:00:00 - 15.11.2019 16:00:00 (CET)Chartres, France (7143): reduced air pressure: 09.11.2019 16:00:00 - 15.11.2019 16:00:00 (CET)Chartres, France (7143): visibility: 09.11.2019 16:00:00 - 15.11.2019 16:00:00 (CET)Chartres, France (7143): Ensoleillement: 09.11.2019 16:00:00 - 15.11.2019 16:00:00 (CET)Chartres, France (7143): Quantités de précipitations: 09.11.2019 16:00:00 - 15.11.2019 16:00:00 (CET)
Date & Time tt [°C] td [°C] tt 5cm [°C] tt -20cm [°C] tt -100cm [°C] ff [km/h] ff [knt] fx [km/h] fx [knt] dd ppp [hPa] vv [km] sd [min] rr [mm]
15.11.2019 16:00:00 1,9 1,3 2,2 9,5 13,0 3 2 9 5 WSW 998,5 9 0 0,4
15.11.2019 15:00:00 1,8 1,2 2,2 9,6 13,0 4 2 8 5 NW 998,7 11 0 0,8
15.11.2019 14:00:00 2,0 1,1 2,5 9,6 13,0 4 2 13 7 N 998,6 11 0 1,8
15.11.2019 13:00:00 2,8 1,8 3,0 9,7 13,0 9 5 20 11 N 998,8 7 0 2,0
15.11.2019 12:00:00 3,6 3,0 3,5 9,7 13,0 9 5 20 11 NNW 998,7 7 0 1,1
15.11.2019 11:00:00 3,3 2,7 2,8 9,7 13,0 11 6 21 11 NNW 998,9 8 0 0,6
15.11.2019 10:00:00 2,8 2,1 2,8 9,8 13,0 12 6 26 14 N 999,2 14 0 0,6
15.11.2019 09:00:00 2,9 2,2 2,7 9,8 13,0 13 7 28 15 N 999,4 15 0 1,2
15.11.2019 08:00:00 3,5 2,6 3,1 9,8 13,0 14 8 29 15 N 999,1 11 0 1,0
15.11.2019 07:00:00 3,8 3,1 3,6 9,9 13,0 16 8 31 17 N 998,7 9 0 0,6
15.11.2019 06:00:00 4,1 3,8 4,0 9,9 13,0 10 5 20 11 N 998,7 5 0 0,6
15.11.2019 05:00:00 4,2 3,9 4,0 9,9 13,0 9 5 20 11 N 998,9 5 0 0,6
15.11.2019 04:00:00 4,2 3,8 4,0 9,9 13,0 10 5 18 10 N 998,9 5 0 0,4
15.11.2019 03:00:00 4,3 3,6 3,7 9,9 13,1 8 4 16 9 N 999,4 9 0 0,0
15.11.2019 02:00:00 4,1 3,2 3,3 10,0 13,1 6 3 12 6 N 999,4 16 0 0,0
15.11.2019 01:00:00 4,5 3,5 3,8 10,0 13,0 6 4 12 6 N 999,5 19 0 0,0
15.11.2019 00:00:00 4,9 3,7 4,6 10,0 13,1 8 4 13 7 NE 999,7 19 0 0,0
14.11.2019 23:00:00 5,0 3,8 4,4 10,0 13,1 6 3 16 9 NE 999,9 15 0 0,0
14.11.2019 22:00:00 4,9 3,7 4,0 10,0 13,1 7 4 16 9 ENE 999,6 19 0 0,0
14.11.2019 21:00:00 5,5 3,8 5,0 10,0 13,1 10 5 17 9 E 999,7 20 0 0,0
14.11.2019 20:00:00 5,5 3,5 4,9 10,0 13,1 3 2 11 6 ENE 999,3 20 0 0,0
14.11.2019 19:00:00 5,8 3,5 5,2 10,0 13,1 5 3 10 6 NE 998,9 20 0 0,0
14.11.2019 18:00:00 5,9 3,6 5,4 10,0 13,1 5 3 11 6 E 999,1 20 0 0,0
14.11.2019 17:00:00 6,1 3,6 5,9 9,9 13,1 8 5 14 8 SE 998,6 20 19 0,0
14.11.2019 16:00:00 6,3 3,3 6,6 9,9 13,1 8 4 16 9 SE 998,3 20 8 0,0
14.11.2019 15:00:00 6,1 2,9 6,7 9,9 13,2 10 5 18 10 S 998,3 20 0 0,0
14.11.2019 14:00:00 6,2 3,4 6,4 9,8 13,1 10 5 22 12 SSE 998,1 20 0 0,0
14.11.2019 13:00:00 5,4 2,7 6,4 9,8 13,2 8 4 22 12 S 998,0 20 1 0,0
14.11.2019 12:00:00 5,2 2,5 5,7 9,8 13,2 11 6 22 12 S 998,4 20 0 0,0
14.11.2019 11:00:00 4,7 2,9 4,7 9,9 13,2 11 6 19 10 SSW 998,5 20 0 0,0
14.11.2019 10:00:00 4,2 2,4 3,7 9,9 13,2 11 6 29 16 SSW 998,1 20 0 0,0
14.11.2019 09:00:00 3,9 2,4 3,5 9,9 13,2 9 5 22 12 SSW 997,4 20 0 0,0
14.11.2019 08:00:00 4,0 2,5 3,4 9,9 13,2 10 5 23 12 SSW 996,5 20 0 0,0
14.11.2019 07:00:00 4,3 3,1 3,5 9,9 13,2 11 6 27 15 SSW 995,8 20 0 0,0
14.11.2019 06:00:00 4,6 3,4 4,1 9,9 13,2 10 6 27 15 SSW 994,9 20 0 0,0
14.11.2019 05:00:00 4,6 2,6 4,2 10,0 13,2 13 7 29 16 SW 994,5 20 0 0,0
14.11.2019 04:00:00 4,9 3,4 4,4 10,0 13,2 13 7 31 17 SW 994,2 20 0 0,0
14.11.2019 03:00:00 5,2 4,0 4,5 10,0 13,2 10 5 34 19 SW 993,6 20 0 0,2
14.11.2019 02:00:00 5,8 5,2 5,1 10,0 13,2 16 9 38 21 SSW 993,3 7 0 0,6
14.11.2019 01:00:00 5,5 4,8 5,1 10,1 13,2 18 10 40 22 S 993,8 8 0 3,2
14.11.2019 00:00:00 5,8 4,3 5,1 10,1 13,3 19 10 47 25 S 994,5 13 0 0,2
13.11.2019 23:00:00 6,2 3,9 5,6 10,1 13,3 21 12 44 24 S 995,4 20 0 0,0
13.11.2019 22:00:00 6,1 3,8 5,4 10,1 13,2 19 10 38 21 S 997,3 20 0 0,0
13.11.2019 21:00:00 6,2 3,7 5,3 10,1 13,3 17 9 36 20 S 998,8 20 0 0,0
13.11.2019 20:00:00 6,6 3,4 5,6 10,1 13,3 14 7 26 14 S 999,9 20 0 0,0
13.11.2019 19:00:00 7,0 3,6 6,2 10,1 13,3 14 8 27 15 S 1001,1 20 0 0,0
13.11.2019 18:00:00 7,3 4,3 6,2 10,1 13,3 11 6 22 12 SSW 1002,3 20 0 0,0
13.11.2019 17:00:00 8,1 3,7 7,1 10,0 13,3 13 7 26 14 SW 1002,9 20 0 0,0
13.11.2019 16:00:00 8,5 4,1 7,7 10,0 13,3 11 6 32 18 SW 1003,5 20 25 0,0
13.11.2019 15:00:00 10,0 4,4 9,4 9,9 13,3 15 8 31 17 SW 1003,5 20 27 0,0
13.11.2019 14:00:00 9,1 5,1 9,0 9,8 13,3 12 6 27 15 WSW 1004,1 20 27 0,0
13.11.2019 13:00:00 8,8 5,2 10,9 9,8 13,3 12 7 25 14 WSW 1005,1 20 56 0,0
13.11.2019 12:00:00 8,2 6,0 7,6 9,8 13,3 10 6 21 11 SW 1005,5 20 48 0,0
13.11.2019 11:00:00 6,2 5,0 5,5 9,7 13,4 9 5 20 11 W 1005,8 20 6 0,2
13.11.2019 10:00:00 5,4 4,7 5,0 9,8 13,4 7 4 20 11 W 1005,9 20 0 0,6
13.11.2019 09:00:00 4,9 4,3 4,4 9,8 13,4 6 3 24 13 W 1005,7 17 0 0,4
13.11.2019 08:00:00 4,6 3,7 4,1 9,8 13,4 10 6 21 11 W 1005,3 20 0 0,0
13.11.2019 07:00:00 4,3 3,6 3,7 9,8 13,4 7 4 18 10 W 1005,0 20 0 0,0
13.11.2019 06:00:00 4,0 3,4 3,1 9,8 13,4 8 4 19 10 W 1004,4 19 0 0,0
13.11.2019 05:00:00 3,5 2,8 2,5 9,9 13,4 11 6 19 11 WSW 1004,1 20 0 0,0
13.11.2019 04:00:00 3,7 2,8 2,7 9,9 13,4 6 4 19 11 W 1004,2 20 0 0,0
13.11.2019 03:00:00 3,4 2,5 1,8 10,0 13,4 8 4 18 10 W 1004,1 20 0 0,0
13.11.2019 02:00:00 3,4 2,5 2,3 10,0 13,4 5 3 14 7 WSW 1004,0 20 0 0,0
13.11.2019 01:00:00 3,7 2,7 3,0 10,0 13,4 7 4 17 9 W 1004,0 18 0 0,0
13.11.2019 00:00:00 3,2 2,3 2,2 10,1 13,4 10 5 23 12 SW 1004,2 20 0 0,0
12.11.2019 23:00:00 3,0 2,1 2,0 10,1 13,4 11 6 23 12 WSW 1004,3 20 0 0,0
12.11.2019 22:00:00 3,0 2,1 1,6 10,2 13,4 10 6 19 11 SW 1004,5 20 0 0,0
12.11.2019 21:00:00 3,1 2,1 1,8 10,3 13,5 8 4 19 11 SW 1004,5 20 0 0,0
12.11.2019 20:00:00 3,3 2,1 2,0 10,3 13,5 8 5 16 9 WSW 1004,4 20 0 0,0
12.11.2019 19:00:00 3,6 2,1 2,1 10,3 13,5 7 4 19 10 WSW 1004,7 20 0 0,0
12.11.2019 18:00:00 4,4 2,4 3,0 10,3 13,5 8 5 23 12 W 1004,8 20 0 0,0
12.11.2019 17:00:00 5,0 3,0 3,8 10,3 13,5 8 5 23 12 WSW 1004,6 20 10 0,0
12.11.2019 16:00:00 5,6 3,3 4,1 10,3 13,5 8 4 29 16 WSW 1005,0 20 10 0,4
12.11.2019 15:00:00 4,7 2,9 4,1 10,2 13,5 20 11 45 24 WNW 1005,7 11 0 0,4
12.11.2019 14:00:00 7,8 3,3 8,1 10,1 13,5 15 8 35 19 W 1005,0 20 2 0,0
12.11.2019 13:00:00 8,6 3,6 8,1 10,1 13,5 16 9 33 18 WSW 1005,1 20 19 0,0
12.11.2019 12:00:00 7,3 3,9 7,8 10,2 13,5 17 9 36 19 WSW 1005,9 20 9 0,0
12.11.2019 11:00:00 7,0 4,0 6,5 10,2 13,5 14 7 32 17 WSW 1005,9 20 41 0,0
12.11.2019 10:00:00 6,5 4,3 4,6 10,2 13,5 14 8 28 15 WSW 1006,1 20 60 0,0
12.11.2019 09:00:00 5,3 3,6 3,9 10,2 13,5 13 7 27 14 WSW 1005,9 20 17 0,0
12.11.2019 08:00:00 4,8 3,3 3,8 10,3 13,5 13 7 31 17 W 1005,9 20 0 0,0
12.11.2019 07:00:00 5,0 3,7 3,9 10,3 13,6 10 6 36 19 WSW 1006,0 20 0 0,0
12.11.2019 06:00:00 5,4 3,7 4,4 10,3 13,5 14 8 31 17 WSW 1006,0 20 0 0,0
12.11.2019 05:00:00 4,8 3,5 3,9 10,3 13,6 11 6 32 17 SW 1006,5 20 0 0,2
12.11.2019 04:00:00 5,2 3,8 4,5 10,4 13,6 15 8 31 17 SW 1006,9 20 0 0,0
12.11.2019 03:00:00 5,1 3,6 4,7 10,4 13,6 13 7 27 15 SW 1007,7 20 0 0,0
12.11.2019 02:00:00 5,3 3,6 4,4 10,4 13,6 12 7 29 16 WSW 1007,8 20 0 0,0
12.11.2019 01:00:00 5,0 3,3 4,1 10,5 13,6 9 5 25 13 SW 1008,5 20 0 0,0
12.11.2019 00:00:00 5,1 3,1 3,6 10,6 13,6 12 6 27 14 WSW 1008,8 20 0 0,0
11.11.2019 23:00:00 4,8 3,0 3,5 10,6 13,6 13 7 25 14 WSW 1008,9 20 0 0,0
11.11.2019 22:00:00 4,8 3,0 3,5 10,6 13,6 9 5 24 13 WSW 1009,0 20 0 0,0
11.11.2019 21:00:00 4,8 2,8 3,1 10,6 13,6 10 5 19 11 WSW 1008,8 20 0 0,0
11.11.2019 20:00:00 4,9 2,8 3,3 10,7 13,6 8 5 18 10 WSW 1008,9 20 0 0,0
11.11.2019 19:00:00 5,8 2,6 4,2 10,7 13,6 9 5 22 12 W 1008,5 20 0 0,0
11.11.2019 18:00:00 6,1 3,3 3,9 10,7 13,6 7 4 16 8 W 1007,9 20 0 0,0
11.11.2019 17:00:00 7,4 3,1 5,7 10,6 13,6 8 4 24 13 W 1007,1 20 54 0,0
11.11.2019 16:00:00 8,1 3,2 7,4 10,6 13,7 15 8 39 21 WNW 1006,9 20 24 0,0
11.11.2019 15:00:00 7,0 3,4 6,7 10,6 13,7 11 6 49 26 NW 1006,5 20 25 0,0
11.11.2019 14:00:00 9,9 5,5 9,0 10,5 13,7 15 8 32 17 WNW 1005,9 20 50 0,0
11.11.2019 13:00:00 8,0 6,6 7,4 10,5 13,7 10 5 26 14 W 1006,1 20 1 0,2
11.11.2019 12:00:00 7,1 6,5 6,5 10,5 13,7 16 8 32 17 SW 1006,5 20 0 0,4
11.11.2019 11:00:00 6,2 5,8 5,7 10,6 13,7 19 10 34 19 SSW 1007,0 16 0 0,6
11.11.2019 10:00:00 5,5 5,2 5,3 10,5 13,7 16 9 31 17 SSW 1007,6 6 0 0,8
11.11.2019 09:00:00 5,3 5,0 5,3 10,6 13,7 14 8 30 16 S 1008,1 9 0 0,2
11.11.2019 08:00:00 5,3 5,0 5,3 10,6 13,7 14 7 29 15 SSW 1008,3 12 0 0,0
11.11.2019 07:00:00 5,5 5,4 5,3 10,6 13,7 15 8 29 16 SSW 1009,1 13 0 0,0
11.11.2019 06:00:00 5,2 5,2 5,0 10,6 13,7 13 7 24 13 SSW 1010,0 2,9 0 0,0
11.11.2019 05:00:00 4,9 4,9 4,8 10,7 13,7 12 6 23 12 S 1010,6 1,2 0 0,0
11.11.2019 04:00:00 4,7 4,6 4,3 10,7 13,7 10 6 23 13 SSW 1012,0 0,8 0 0,0
11.11.2019 03:00:00 4,4 4,3 3,3 10,7 13,7 10 5 18 10 S 1012,5 4,3 0 0,0
11.11.2019 02:00:00 4,3 4,2 3,3 10,8 13,8 6 3 16 9 SW 1013,2 13 0 0,2
11.11.2019 01:00:00 4,2 4,1 3,1 10,8 13,8 7 4 13 7 S 1013,1 7 0 0,0
11.11.2019 00:00:00 4,2 3,9 2,9 10,9 13,8 6 3 10 6 S 1014,6 9 0 0,0
10.11.2019 23:00:00 4,6 4,3 2,9 10,9 13,8 7 4 12 7 S 1013,9 8 0 0,0
10.11.2019 22:00:00 4,8 4,5 2,9 10,9 13,8 6 3 11 6 S 1013,9 7 0 0,0
10.11.2019 21:00:00 5,4 5,1 3,4 10,9 13,8 5 3 10 5 S 1014,0 5 0 0,0
10.11.2019 20:00:00 6,5 6,1 6,2 10,9 13,8 3 1 4 2 E 1014,6 4,6 0 0,0
10.11.2019 19:00:00 6,6 6,0 6,3 10,9 13,8 0 0 4 2 N 1014,7 7 0 0,0
10.11.2019 18:00:00 6,8 6,2 6,3 10,8 13,8 4 2 8 5 N 1014,0 8 0 0,0
10.11.2019 17:00:00 7,2 5,7 7,2 10,8 13,8 0 0 4 2 N 1013,1 15 0 0,0
10.11.2019 16:00:00 7,6 5,9 8,2 10,8 13,9 0 0 6 4 N 1012,3 14 0 0,0
10.11.2019 15:00:00 7,6 5,1 7,2 10,7 13,8 0 0 7 4 N 1011,2 20 0 0,0
10.11.2019 14:00:00 7,2 5,2 7,7 10,7 13,9 3 2 9 5 ENE 1010,6 20 0 0,0
10.11.2019 13:00:00 7,1 4,9 8,3 10,6 13,9 2 1 8 5 NNE 1009,8 18 1 0,0
10.11.2019 12:00:00 6,6 5,1 7,2 10,6 13,9 7 4 13 7 NE 1009,3 20 0 0,0
10.11.2019 11:00:00 5,9 5,3 5,7 10,6 13,9 6 3 10 5 NE 1008,6 20 0 0,6
10.11.2019 10:00:00 5,4 5,1 5,5 10,6 13,9 5 3 14 8 NE 1007,6 10 0 1,4
10.11.2019 09:00:00 5,8 5,7 5,5 10,6 13,9 4 2 11 6 W 1006,5 3,2 0 0,4
10.11.2019 08:00:00 5,4 5,1 5,2 10,6 13,9 3 2 5 3 E 1005,6 9 0 0,2
10.11.2019 07:00:00 5,3 5,2 5,0 10,7 13,9 0 0 4 2 N 1004,7 8 0 0,4
10.11.2019 06:00:00 5,1 4,8 4,9 10,7 14,0 0 0 3 1 N 1004,5 6 0 0,6
10.11.2019 05:00:00 5,0 4,7 4,7 10,7 13,9 0 0 6 4 N 1004,1 16 0 0,4
10.11.2019 04:00:00 5,0 4,7 4,8 10,7 14,0 4 2 9 5 NNE 1003,8 16 0 0,4
10.11.2019 03:00:00 5,1 4,8 4,9 10,7 13,9 2 1 6 3 NW 1003,7 10 0 0,8
10.11.2019 02:00:00 5,1 4,8 4,9 10,8 14,0 4 2 7 4 N 1003,4 12 0 0,6
10.11.2019 01:00:00 5,2 4,8 5,0 10,8 14,0 4 2 7 4 NNE 1003,5 13 0 1,0
10.11.2019 00:00:00 5,2 4,6 5,0 10,9 14,0 5 3 16 9 ESE 1003,4 9 0 1,2
09.11.2019 23:00:00 5,3 4,7 5,0 10,9 14,0 10 5 23 13 SE 1003,2 12 0 1,6
09.11.2019 22:00:00 5,5 4,8 5,1 11,0 14,0 15 8 30 16 SSE 1003,4 8 0 2,6
09.11.2019 21:00:00 5,7 5,3 5,4 11,0 14,0 11 6 29 16 SSE 1004,1 3,8 0 4,1
09.11.2019 20:00:00 5,6 5,0 5,1 11,0 14,0 11 6 23 12 SE 1004,7 5 0 2,0
09.11.2019 19:00:00 5,6 4,7 5,1 11,0 14,1 8 5 27 14 SSE 1005,4 4,8 0 0,8
09.11.2019 18:00:00 6,0 4,2 5,8 11,0 14,1 13 7 29 15 S 1005,7 20 0 0,0
09.11.2019 17:00:00 6,1 4,1 6,0 10,9 14,0 14 8 29 16 SSE 1006,3 20 0 0,0
09.11.2019 16:00:00 6,1 4,3 6,2 10,9 14,1 15 8 27 15 S 1007,1 20 0 0,0

tt = Température de l'air
td = dewpoint
tt 5cm = Température de l'air 5cm
tt -20cm = Température de l'air -20cm
tt -100cm = Température de l'air -100cm
ff = Vitesse du vent
fx = gusts
dd = Direction du vent
ppp = reduced air pressure
vv = visibility
sd = Ensoleillement
rr = Quantités de précipitations

stations d'obs. à proximité